Summerville, SC

8:25 PM EST on December 10, 2016 (GMT -0500)
Summerville

Weather History for KDYB - October, 2012

Change the Weather History Date:

Wednesday, October 3, 2012

  Actual Average (KCHS) Record (KCHS)
Temperature  
Mean Temperature 76 °F -  
Max Temperature 80 °F 80 °F 93 °F (1986)
Min Temperature 73 °F 59 °F 42 °F (1974)
Cooling Degree Days 12    
Growing Degree Days 26 (Base 50)    
Moisture  
Dew Point 73 °F    
Average Humidity 91    
Maximum Humidity 100    
Minimum Humidity 74    
Precipitation  
Precipitation 0.00 in - - ()
Sea Level Pressure  
Sea Level Pressure 30.09 in    
Wind  
Wind Speed 1 mph (SSW)    
Max Wind Speed 5 mph    
Max Gust Speed -    
Visibility 10 miles    
Events Rain    
Averages and records for this station are not official NWS values.
T = Trace of Precipitation, MM = Missing Value Source: NWS Daily Summary

Daily Weather History Graph

Daily Weather History Graph

Search for Another Location

Airport or City:

Trip Planner

Search our weather history database for the weather conditions in past years. The results will help you decide how hot, cold, wet, or windy it might be!

Date:

Astronomy

Oct. 03, 2012 Rise Set
Actual Time 7:17 AM EDT 7:02 PM EDT
Civil Twilight 6:52 AM EDT 7:27 PM EDT
Nautical Twilight 6:23 AM EDT 7:55 PM EDT
Astronomical Twilight 5:54 AM EDT 8:24 PM EDT
Moon 9:06 PM EDT (10/3) 10:26 AM EDT (10/3)
Length of Visible Light 12h 34m
Length of Day
11h 45m
Waning Gibbous, 89% of the Moon is Illuminated
Oct 3
Waning Gibbous
Oct 8
Last Quarter
Oct 15
New
Oct 21
First Quarter
Oct 29
Full

Hourly Weather History & Observations

Time (EDT) Temp. Heat Index Dew Point Humidity Pressure Visibility Wind Dir Wind Speed Gust Speed Precip Events Conditions
12:15 AM 73.4 °F - 73.4 °F 100% 30.00 in 10.0 mi Calm Calm - N/A   Clear
12:35 AM 73.4 °F - 73.4 °F 100% 30.00 in 10.0 mi Calm Calm - N/A   Clear
12:55 AM 73.4 °F - 73.4 °F 100% 30.00 in 10.0 mi Calm Calm - N/A   Scattered Clouds
1:15 AM 75.2 °F - 75.2 °F 100% 30.00 in 10.0 mi Calm Calm - N/A   Scattered Clouds
1:35 AM 75.2 °F - 75.2 °F 100% 30.00 in 10.0 mi Calm Calm - N/A   Scattered Clouds
1:55 AM 75.2 °F - 75.2 °F 100% 30.00 in 10.0 mi Calm Calm - N/A   Scattered Clouds
2:15 AM 75.2 °F - 75.2 °F 100% 30.00 in 10.0 mi Calm Calm - N/A   Clear
2:35 AM 75.2 °F - 75.2 °F 100% 30.00 in 10.0 mi Calm Calm - N/A   Scattered Clouds
2:55 AM 75.2 °F - 75.2 °F 100% 30.00 in 10.0 mi SE 3.5 mph - N/A   Clear
3:15 AM 75.2 °F - 75.2 °F 100% 30.00 in 10.0 mi Calm Calm - N/A   Clear
3:35 AM 75.2 °F - 75.2 °F 100% 30.00 in 10.0 mi Calm Calm - N/A   Scattered Clouds
3:55 AM 75.2 °F - 75.2 °F 100% 30.01 in 5.0 mi SSW 4.6 mph - N/A Rain Heavy Rain
4:15 AM 75.2 °F - 75.2 °F 100% 30.01 in 10.0 mi Calm Calm - N/A   Scattered Clouds
4:35 AM 75.2 °F - 75.2 °F 100% 30.01 in 10.0 mi Calm Calm - N/A   Scattered Clouds
4:55 AM 73.4 °F - 73.4 °F 100% 30.02 in 10.0 mi Calm Calm - N/A   Scattered Clouds
5:15 AM 73.4 °F - 73.4 °F 100% 30.02 in 10.0 mi SSW 3.5 mph - N/A   Scattered Clouds
5:35 AM 73.4 °F - 73.4 °F 100% 30.03 in 10.0 mi Calm Calm - N/A   Clear
5:55 AM 73.4 °F - 73.4 °F 100% 30.04 in 10.0 mi Calm Calm - N/A   Clear
6:15 AM 73.4 °F - 73.4 °F 100% 30.04 in 10.0 mi Calm Calm - N/A   Clear
6:35 AM 73.4 °F - 73.4 °F 100% 30.05 in 10.0 mi Calm Calm - N/A   Clear
6:55 AM 73.4 °F - 73.4 °F 100% 30.05 in 10.0 mi Calm Calm - N/A   Clear
7:15 AM 73.4 °F - 73.4 °F 100% 30.06 in 10.0 mi Calm Calm - N/A   Clear
8:15 AM 73.4 °F - 73.4 °F 100% 30.08 in 10.0 mi Calm Calm - N/A   Clear
8:35 AM 73.4 °F - 73.4 °F 100% 30.09 in 10.0 mi Calm Calm - N/A   Clear
8:55 AM 73.4 °F - 73.4 °F 100% 30.09 in 10.0 mi Calm Calm - N/A   Clear
9:15 AM 73.4 °F - 73.4 °F 100% 30.10 in 10.0 mi Calm Calm - N/A   Clear
9:55 AM 77.0 °F - 73.4 °F 89% 30.11 in 10.0 mi SSW 3.5 mph - N/A   Clear
10:15 AM 77.0 °F - 73.4 °F 89% 30.11 in 10.0 mi SW 3.5 mph - N/A   Clear
10:35 AM 77.0 °F - 73.4 °F 89% 30.12 in 10.0 mi SSW 3.5 mph - N/A   Clear
10:55 AM 78.8 °F - 73.4 °F 83% 30.12 in 10.0 mi Calm Calm - N/A   Clear
11:15 AM 80.6 °F 84.6 °F 71.6 °F 74% 30.13 in 10.0 mi Calm Calm - N/A   Scattered Clouds
11:35 AM 78.8 °F - 71.6 °F 78% 30.13 in 10.0 mi Calm Calm - N/A   Mostly Cloudy
11:55 AM 78.8 °F - 71.6 °F 78% 30.13 in 10.0 mi WSW 4.6 mph - N/A   Scattered Clouds
12:35 PM 78.8 °F - 71.6 °F 78% 30.13 in 10.0 mi Calm Calm - N/A   Scattered Clouds
12:55 PM 78.8 °F - 71.6 °F 78% 30.12 in 10.0 mi South 3.5 mph - N/A   Scattered Clouds
1:15 PM 80.6 °F 84.6 °F 71.6 °F 74% 30.12 in 10.0 mi South 4.6 mph - N/A   Scattered Clouds
1:55 PM 80.6 °F 84.6 °F 71.6 °F 74% 30.11 in 10.0 mi SSW 3.5 mph - N/A Rain Light Rain
2:15 PM 80.6 °F 84.6 °F 71.6 °F 74% 30.11 in 10.0 mi SW 3.5 mph - N/A   Overcast
2:35 PM 80.6 °F 84.6 °F 71.6 °F 74% 30.10 in 10.0 mi WSW 3.5 mph - N/A   Mostly Cloudy
2:55 PM 80.6 °F 84.6 °F 71.6 °F 74% 30.10 in 10.0 mi South 3.5 mph - N/A   Mostly Cloudy
3:35 PM 80.6 °F 84.6 °F 71.6 °F 74% 30.10 in 10.0 mi Calm Calm - N/A   Overcast
3:55 PM 80.6 °F 84.6 °F 71.6 °F 74% 30.11 in 10.0 mi Calm Calm - N/A   Overcast
4:15 PM 80.6 °F 84.6 °F 71.6 °F 74% 30.10 in 10.0 mi Calm Calm - N/A   Scattered Clouds
4:35 PM 78.8 °F - 71.6 °F 78% 30.10 in 10.0 mi Calm Calm - N/A   Scattered Clouds
4:55 PM 78.8 °F - 71.6 °F 78% 30.11 in 10.0 mi Calm Calm - N/A   Overcast
5:15 PM 78.8 °F - 73.4 °F 83% 30.11 in 10.0 mi Calm Calm - N/A   Overcast
5:35 PM 78.8 °F - 73.4 °F 83% 30.12 in 10.0 mi Calm Calm - N/A   Overcast
5:55 PM 78.8 °F - 73.4 °F 83% 30.12 in 10.0 mi Calm Calm - N/A   Overcast
6:15 PM 78.8 °F - 73.4 °F 83% 30.12 in 10.0 mi Calm Calm - N/A   Overcast
6:55 PM 77.0 °F - 73.4 °F 89% 30.14 in 10.0 mi Calm Calm - N/A   Overcast
7:15 PM 77.0 °F - 73.4 °F 89% 30.13 in 10.0 mi Calm Calm - N/A   Mostly Cloudy
7:35 PM 75.2 °F - 73.4 °F 94% 30.14 in 10.0 mi Calm Calm - N/A   Mostly Cloudy
7:55 PM 75.2 °F - 73.4 °F 94% 30.14 in 10.0 mi Calm Calm - N/A   Mostly Cloudy
8:15 PM 75.2 °F - 73.4 °F 94% 30.15 in 10.0 mi Calm Calm - N/A   Overcast
8:55 PM 73.4 °F - 73.4 °F 100% 30.17 in 10.0 mi Calm Calm - N/A   Overcast
9:35 PM 75.2 °F - 73.4 °F 94% 30.18 in 10.0 mi Calm Calm - N/A   Overcast
9:55 PM 73.4 °F - 73.4 °F 100% 30.19 in 10.0 mi Calm Calm - N/A   Overcast
10:35 PM 73.4 °F - 73.4 °F 100% 30.20 in 10.0 mi Calm Calm - N/A Rain Rain
10:55 PM 73.4 °F - 73.4 °F 100% 30.20 in 10.0 mi Calm Calm - N/A   Overcast
11:15 PM 73.4 °F - 73.4 °F 100% 30.20 in 10.0 mi Calm Calm - N/A   Light Drizzle
11:35 PM 73.4 °F - 73.4 °F 100% 30.21 in 10.0 mi Calm Calm - N/A   Overcast
11:55 PM 73.4 °F - 73.4 °F 100% 30.20 in 7.0 mi SW 3.5 mph - N/A Rain Light Rain